| time (UTC) | temp F | wind direction | speed knots | gust knots | rain 1hr in | rain 24hr in | rain mn in | humidity % | barometer mb |
| 20260506023046 | 61 | 0 | 0.0 | 0.0 | 0.00 | 0.00 | 0.00 | 66 | 1015.1 |
| 20260506022535 | 61 | 0 | 0.0 | 0.0 | 0.00 | 0.00 | 0.00 | 66 | 1014.9 |
| 20260506022035 | 61 | 0 | 0.0 | 0.0 | 0.00 | 0.00 | 0.00 | 66 | 1015.0 |
| 20260506021600 | 61 | 0 | 0.0 | 0.0 | 0.00 | 0.00 | 0.00 | 65 | 1014.8 |
| 20260506021035 | 61 | 0 | 0.0 | 0.0 | 0.00 | 0.00 | 0.00 | 65 | 1014.8 |
| 20260506020533 | 61 | 0 | 0.0 | 0.0 | 0.00 | 0.00 | 0.00 | 65 | 1014.7 |
| 20260506020046 | 61 | 0 | 0.0 | 0.0 | 0.00 | 0.00 | 0.00 | 64 | 1014.6 |
| 20260506015535 | 61 | 0 | 0.0 | 0.9 | 0.00 | 0.00 | 0.00 | 65 | 1014.6 |
| 20260506015035 | 62 | 0 | 0.0 | 1.7 | 0.00 | 0.00 | 0.00 | 63 | 1014.4 |
| 20260506014550 | 62 | 0 | 0.0 | 1.7 | 0.00 | 0.00 | 0.00 | 63 | 1014.4 |
| 20260506014034 | 62 | 0 | 0.0 | 1.7 | 0.00 | 0.00 | 0.00 | 63 | 1014.5 |
| 20260506013532 | 63 | 0 | 0.0 | 1.7 | 0.00 | 0.00 | 0.00 | 61 | 1014.5 |
| 20260506013056 | 63 | 0 | 0.0 | 1.7 | 0.00 | 0.00 | 0.00 | 60 | 1014.5 |
| 20260506012533 | 63 | 0 | 0.0 | 1.7 | 0.00 | 0.00 | 0.00 | 61 | 1014.4 |
| 20260506012036 | 63 | 271 | 0.0 | 1.7 | 0.00 | 0.00 | 0.00 | 60 | 1014.3 |
| 20260506011602 | 63 | 0 | 0.0 | 0.9 | 0.00 | 0.00 | 0.00 | 59 | 1014.3 |
| 20260506011035 | 63 | 0 | 0.0 | 0.9 | 0.00 | 0.00 | 0.00 | 60 | 1014.5 |
| 20260506010532 | 64 | 269 | 0.0 | 0.9 | 0.00 | 0.00 | 0.00 | 59 | 1014.4 |
| 20260506010048 | 64 | 0 | 0.0 | 1.7 | 0.00 | 0.00 | 0.00 | 59 | 1014.5 |
| 20260506005534 | 64 | 0 | 0.0 | 1.7 | 0.00 | 0.00 | 0.00 | 57 | 1014.6 |
| 20260506005034 | 65 | 0 | 0.9 | 1.7 | 0.00 | 0.00 | 0.00 | 55 | 1014.6 |
| 20260506004550 | 65 | 0 | 0.0 | 0.9 | 0.00 | 0.00 | 0.00 | 54 | 1014.7 |
| 20260506004033 | 65 | 0 | 0.0 | 2.6 | 0.00 | 0.00 | 0.00 | 56 | 1014.8 |
| 20260506003532 | 66 | 0 | 0.0 | 2.6 | 0.00 | 0.00 | 0.00 | 53 | 1014.7 |
| 20260506003045 | 66 | 268 | 0.0 | 9.6 | 0.00 | 0.00 | 0.00 | 52 | 1014.8 |
| 20260506002535 | 66 | 290 | 0.0 | 9.6 | 0.00 | 0.00 | 0.00 | 51 | 1014.6 |
| 20260506002034 | 67 | 271 | 0.9 | 7.0 | 0.00 | 0.00 | 0.00 | 52 | 1014.6 |
| 20260506001549 | 67 | 256 | 0.9 | 2.6 | 0.00 | 0.00 | 0.00 | 51 | 1014.7 |
| 20260506001034 | 67 | 247 | 0.9 | 2.6 | 0.00 | 0.00 | 0.00 | 48 | 1014.4 |
| 20260506000535 | 68 | 240 | 0.0 | 1.7 | 0.00 | 0.00 | 0.00 | 48 | 1014.5 |
| 20260506000054 | 68 | 0 | 0.0 | 6.1 | 0.00 | 0.00 | 0.00 | 47 | 1014.4 |
| 20260505235534 | 68 | 255 | 0.0 | 7.0 | 0.00 | 0.00 | 0.00 | 46 | 1014.5 |
| 20260505235034 | 68 | 252 | 1.7 | 7.0 | 0.00 | 0.00 | 0.00 | 46 | 1014.2 |
| 20260505234600 | 68 | 248 | 0.9 | 6.1 | 0.00 | 0.00 | 0.00 | 46 | 1014.3 |
| 20260505234034 | 69 | 0 | 0.9 | 6.1 | 0.00 | 0.00 | 0.00 | 45 | 1014.4 |
| 20260505233534 | 69 | 209 | 0.9 | 3.5 | 0.00 | 0.00 | 0.00 | 45 | 1014.4 |
| 20260505233045 | 69 | 267 | 0.0 | 5.2 | 0.00 | 0.00 | 0.00 | 45 | 1014.4 |
| 20260505232533 | 69 | 0 | 0.0 | 5.2 | 0.00 | 0.00 | 0.00 | 45 | 1014.2 |
| 20260505232041 | 69 | 254 | 0.9 | 6.1 | 0.00 | 0.00 | 0.00 | 44 | 1014.4 |
| 20260505231601 | 69 | 277 | 1.7 | 7.8 | 0.00 | 0.00 | 0.00 | 45 | 1014.2 |
| 20260505231034 | 70 | 256 | 3.5 | 7.8 | 0.00 | 0.00 | 0.00 | 44 | 1014.1 |
| 20260505230534 | 70 | 265 | 0.9 | 7.8 | 0.00 | 0.00 | 0.00 | 45 | 1014.3 |
| 20260505230043 | 70 | 263 | 1.7 | 9.6 | 0.00 | 0.00 | 0.00 | 43 | 1014.3 |
| 20260505225538 | 71 | 267 | 4.3 | 9.6 | 0.00 | 0.00 | 0.00 | 42 | 1014.3 |
| 20260505225034 | 71 | 0 | 1.7 | 7.8 | 0.00 | 0.00 | 0.00 | 44 | 1014.4 |
| 20260505224552 | 71 | 259 | 3.5 | 7.8 | 0.00 | 0.00 | 0.00 | 43 | 1014.5 |
| 20260505224038 | 71 | 252 | 2.6 | 7.8 | 0.00 | 0.00 | 0.00 | 43 | 1014.4 |
| 20260505223535 | 71 | 258 | 2.6 | 9.6 | 0.00 | 0.00 | 0.00 | 42 | 1014.4 |
| 20260505223050 | 72 | 243 | 2.6 | 11.3 | 0.00 | 0.00 | 0.00 | 41 | 1014.4 |
| 20260505222534 | 72 | 249 | 4.3 | 11.3 | 0.00 | 0.00 | 0.00 | 41 | 1014.6 |
| 20260505222034 | 72 | 263 | 0.9 | 7.8 | 0.00 | 0.00 | 0.00 | 43 | 1014.2 |
| 20260505221550 | 72 | 329 | 0.9 | 7.8 | 0.00 | 0.00 | 0.00 | 42 | 1014.3 |
| 20260505221034 | 72 | 261 | 0.9 | 7.0 | 0.00 | 0.00 | 0.00 | 43 | 1014.2 |
| 20260505220533 | 73 | 0 | 1.7 | 9.6 | 0.00 | 0.00 | 0.00 | 41 | 1014.3 |
| 20260505220052 | 73 | 301 | 1.7 | 9.6 | 0.00 | 0.00 | 0.00 | 40 | 1014.2 |
| 20260505215534 | 73 | 229 | 0.9 | 9.6 | 0.00 | 0.00 | 0.00 | 40 | 1014.3 |
| 20260505215035 | 73 | 300 | 4.3 | 9.6 | 0.00 | 0.00 | 0.00 | 39 | 1014.2 |
| 20260505214610 | 73 | 236 | 2.6 | 10.4 | 0.00 | 0.00 | 0.00 | 41 | 1014.1 |
| 20260505214034 | 73 | 263 | 3.5 | 10.4 | 0.00 | 0.00 | 0.00 | 38 | 1014.1 |
| 20260505213536 | 73 | 252 | 1.7 | 5.2 | 0.00 | 0.00 | 0.00 | 40 | 1014.2 |
| 20260505213046 | 73 | 0 | 0.9 | 7.8 | 0.00 | 0.00 | 0.00 | 39 | 1014.2 |
| 20260505212534 | 73 | 243 | 0.9 | 7.8 | 0.00 | 0.00 | 0.00 | 40 | 1014.2 |
| 20260505212034 | 72 | 273 | 2.6 | 11.3 | 0.00 | 0.00 | 0.00 | 39 | 1014.2 |
| 20260505211546 | 73 | 284 | 5.2 | 11.3 | 0.00 | 0.00 | 0.00 | 38 | 1014.1 |
| 20260505211034 | 73 | 256 | 2.6 | 6.1 | 0.00 | 0.00 | 0.00 | 40 | 1014.2 |
| 20260505210533 | 73 | 0 | 2.6 | 11.3 | 0.00 | 0.00 | 0.00 | 43 | 1014.1 |
| 20260505210045 | 74 | 271 | 2.6 | 11.3 | 0.00 | 0.00 | 0.00 | 41 | 1014.2 |
| 20260505205534 | 74 | 261 | 2.6 | 11.3 | 0.00 | 0.00 | 0.00 | 40 | 1014.1 |
| 20260505205035 | 74 | 134 | 1.7 | 7.0 | 0.00 | 0.00 | 0.00 | 41 | 1014.2 |
| 20260505204553 | 74 | 30 | 0.9 | 7.0 | 0.00 | 0.00 | 0.00 | 40 | 1014.1 |
| 20260505204033 | 74 | 257 | 1.7 | 10.4 | 0.00 | 0.00 | 0.00 | 41 | 1014.1 |
| 20260505203534 | 73 | 298 | 3.5 | 10.4 | 0.00 | 0.00 | 0.00 | 41 | 1014.2 |
| 20260505203048 | 73 | 281 | 0.9 | 9.6 | 0.00 | 0.00 | 0.00 | 47 | 1014.3 |
| 20260505202533 | 73 | 360 | 0.9 | 9.6 | 0.00 | 0.00 | 0.00 | 43 | 1014.4 |
| 20260505202033 | 73 | 254 | 2.6 | 8.7 | 0.00 | 0.00 | 0.00 | 42 | 1014.4 |
| 20260505201549 | 74 | 100 | 2.6 | 9.6 | 0.00 | 0.00 | 0.00 | 41 | 1014.3 |
| 20260505201034 | 74 | 81 | 2.6 | 9.6 | 0.00 | 0.00 | 0.00 | 42 | 1014.2 |
| 20260505200534 | 74 | 267 | 2.6 | 9.6 | 0.00 | 0.00 | 0.00 | 40 | 1014.4 |
| 20260505200057 | 74 | 272 | 0.9 | 8.7 | 0.00 | 0.00 | 0.00 | 40 | 1014.5 |
| 20260505195537 | 74 | 257 | 2.6 | 13.9 | 0.00 | 0.00 | 0.00 | 42 | 1014.4 |
| 20260505195036 | 73 | 269 | 4.3 | 13.9 | 0.00 | 0.00 | 0.00 | 41 | 1014.4 |
| 20260505194545 | 74 | 280 | 2.6 | 9.6 | 0.00 | 0.00 | 0.00 | 40 | 1014.4 |
| 20260505194034 | 74 | 245 | 1.7 | 10.4 | 0.00 | 0.00 | 0.00 | 40 | 1014.6 |
| 20260505193534 | 72 | 277 | 5.2 | 10.4 | 0.00 | 0.00 | 0.00 | 40 | 1014.6 |
| 20260505193048 | 72 | 270 | 3.5 | 8.7 | 0.00 | 0.00 | 0.00 | 38 | 1014.9 |
| 20260505192533 | 72 | 257 | 5.2 | 10.4 | 0.00 | 0.00 | 0.00 | 35 | 1015.0 |
| 20260505192034 | 73 | 256 | 3.5 | 10.4 | 0.00 | 0.00 | 0.00 | 36 | 1014.9 |
| 20260505191548 | 72 | 261 | 1.7 | 10.4 | 0.00 | 0.00 | 0.00 | 37 | 1015.0 |
| 20260505191034 | 72 | 232 | 1.7 | 8.7 | 0.00 | 0.00 | 0.00 | 35 | 1015.2 |
| 20260505190535 | 73 | 296 | 0.9 | 8.7 | 0.00 | 0.00 | 0.00 | 38 | 1015.3 |
| 20260505190048 | 74 | 254 | 0.9 | 5.2 | 0.00 | 0.00 | 0.00 | 40 | 1015.3 |
| 20260505185534 | 74 | 19 | 0.9 | 7.0 | 0.00 | 0.00 | 0.00 | 40 | 1015.3 |
| 20260505185035 | 73 | 40 | 3.5 | 12.2 | 0.00 | 0.00 | 0.00 | 39 | 1015.3 |
| 20260505184545 | 73 | 257 | 1.7 | 12.2 | 0.00 | 0.00 | 0.00 | 41 | 1015.5 |
| 20260505184035 | 73 | 267 | 6.1 | 12.2 | 0.00 | 0.00 | 0.00 | 39 | 1015.5 |
| 20260505183534 | 74 | 262 | 2.6 | 8.7 | 0.00 | 0.00 | 0.00 | 39 | 1015.5 |
| 20260505183055 | 73 | 57 | 0.9 | 9.6 | 0.00 | 0.00 | 0.00 | 43 | 1015.7 |
| 20260505182534 | 73 | 240 | 3.5 | 9.6 | 0.00 | 0.00 | 0.00 | 41 | 1015.6 |
| 20260505182035 | 72 | 257 | 1.7 | 9.6 | 0.00 | 0.00 | 0.00 | 41 | 1015.8 |
| 20260505181554 | 71 | 288 | 3.5 | 9.6 | 0.00 | 0.00 | 0.00 | 42 | 1015.8 |
| 20260505181032 | 71 | 254 | 4.3 | 12.2 | 0.00 | 0.00 | 0.00 | 41 | 1015.7 |
| 20260505180533 | 71 | 254 | 4.3 | 12.2 | 0.00 | 0.00 | 0.00 | 40 | 1015.9 |
| 20260505180048 | 72 | 0 | 0.9 | 9.6 | 0.00 | 0.00 | 0.00 | 41 | 1016.0 |
| 20260505175534 | 72 | 277 | 2.6 | 9.6 | 0.00 | 0.00 | 0.00 | 40 | 1015.9 |
| 20260505175035 | 71 | 265 | 1.7 | 9.6 | 0.00 | 0.00 | 0.00 | 41 | 1015.9 |
| 20260505174557 | 71 | 258 | 3.5 | 11.3 | 0.00 | 0.00 | 0.00 | 41 | 1015.9 |
| 20260505174034 | 71 | 236 | 3.5 | 11.3 | 0.00 | 0.00 | 0.00 | 41 | 1016.0 |
| 20260505173534 | 72 | 270 | 1.7 | 7.8 | 0.00 | 0.00 | 0.00 | 40 | 1016.1 |
| 20260505173045 | 72 | 63 | 2.6 | 8.7 | 0.00 | 0.00 | 0.00 | 38 | 1016.0 |
| 20260505172535 | 71 | 265 | 2.6 | 8.7 | 0.00 | 0.00 | 0.00 | 43 | 1016.1 |
| 20260505172033 | 72 | 252 | 0.0 | 7.8 | 0.00 | 0.00 | 0.00 | 40 | 1016.2 |
| 20260505171549 | 72 | 161 | 1.7 | 5.2 | 0.00 | 0.00 | 0.00 | 41 | 1016.2 |
| 20260505171033 | 72 | 107 | 0.9 | 5.2 | 0.00 | 0.00 | 0.00 | 46 | 1016.3 |
| 20260505170533 | 72 | 283 | 0.9 | 9.6 | 0.00 | 0.00 | 0.00 | 43 | 1016.3 |
| 20260505170053 | 71 | 305 | 1.7 | 10.4 | 0.00 | 0.00 | 0.00 | 44 | 1016.4 |
| 20260505165533 | 72 | 257 | 1.7 | 10.4 | 0.00 | 0.00 | 0.00 | 44 | 1016.4 |
| 20260505165057 | 71 | 319 | 0.9 | 7.8 | 0.00 | 0.00 | 0.00 | 50 | 1016.6 |
| 20260505164546 | 71 | 207 | 0.9 | 7.8 | 0.00 | 0.00 | 0.00 | 47 | 1016.5 |
| 20260505164036 | 70 | 273 | 2.6 | 7.8 | 0.00 | 0.00 | 0.00 | 46 | 1016.6 |
| 20260505163534 | 70 | 254 | 0.9 | 7.0 | 0.00 | 0.00 | 0.00 | 46 | 1016.4 |
| 20260505163053 | 71 | 263 | 1.7 | 7.0 | 0.00 | 0.00 | 0.00 | 50 | 1016.4 |
| 20260505162535 | 71 | 352 | 0.9 | 5.2 | 0.00 | 0.00 | 0.00 | 49 | 1016.4 |
| 20260505162033 | 71 | 278 | 1.7 | 5.2 | 0.00 | 0.00 | 0.00 | 47 | 1016.4 |
| 20260505161543 | 71 | 311 | 0.9 | 5.2 | 0.00 | 0.00 | 0.00 | 48 | 1016.3 |
| 20260505161033 | 71 | 0 | 0.9 | 5.2 | 0.00 | 0.00 | 0.00 | 51 | 1016.3 |
| 20260505160533 | 70 | 0 | 0.9 | 3.5 | 0.00 | 0.00 | 0.00 | 50 | 1016.4 |
| 20260505153058 | 67 | 233 | 1.7 | 9.6 | 0.00 | 0.00 | 0.00 | 50 | 1016.9 |
| 20260505152536 | 67 | 221 | 1.7 | 6.1 | 0.00 | 0.00 | 0.00 | 51 | 1016.8 |
| 20260505152033 | 68 | 264 | 0.0 | 6.1 | 0.00 | 0.00 | 0.00 | 52 | 1016.8 |
| 20260505151544 | 68 | 249 | 0.9 | 6.1 | 0.00 | 0.00 | 0.00 | 49 | 1016.8 |
| 20260505151033 | 67 | 0 | 0.9 | 4.3 | 0.00 | 0.00 | 0.00 | 52 | 1016.7 |
| 20260505150533 | 66 | 261 | 0.9 | 6.1 | 0.00 | 0.00 | 0.00 | 53 | 1016.7 |
| 20260505140533 | 63 | 266 | 0.0 | 2.6 | 0.00 | 0.00 | 0.00 | 60 | 1017.1 |
| 20260505140106 | 63 | 0 | 0.0 | 0.0 | 0.00 | 0.00 | 0.00 | 63 | 1017.0 |
| 20260505125033 | 54 | 0 | 0.0 | 0.0 | 0.00 | 0.00 | 0.00 | 81 | 1016.2 |
| 20260505124553 | 53 | 0 | 0.0 | 0.0 | 0.00 | 0.00 | 0.00 | 82 | 1016.1 |
| 20260505124033 | 53 | 0 | 0.0 | 0.0 | 0.00 | 0.00 | 0.00 | 83 | 1016.0 |
| 20260505123534 | 52 | 0 | 0.0 | 0.0 | 0.00 | 0.00 | 0.00 | 84 | 1016.1 |
| 20260505123055 | 51 | 0 | 0.0 | 0.0 | 0.00 | 0.00 | 0.00 | 85 | 1016.1 |
| 20260505122533 | 50 | 0 | 0.0 | 0.0 | 0.00 | 0.00 | 0.00 | 85 | 1015.9 |
| 20260505122033 | 50 | 0 | 0.0 | 0.0 | 0.00 | 0.00 | 0.00 | 86 | 1016.0 |
| 20260505121550 | 49 | 0 | 0.0 | 0.0 | 0.00 | 0.00 | 0.00 | 87 | 1015.8 |
| 20260505121033 | 49 | 0 | 0.0 | 0.0 | 0.00 | 0.00 | 0.00 | 87 | 1016.0 |
| 20260505120534 | 48 | 0 | 0.0 | 0.0 | 0.00 | 0.00 | 0.00 | 87 | 1015.9 |
| 20260505120051 | 48 | 0 | 0.0 | 0.0 | 0.00 | 0.00 | 0.00 | 88 | 1015.8 |
| 20260505115535 | 48 | 0 | 0.0 | 0.0 | 0.00 | 0.00 | 0.00 | 88 | 1015.8 |
| 20260505115033 | 47 | 0 | 0.0 | 0.0 | 0.00 | 0.00 | 0.00 | 88 | 1015.8 |
| 20260505114553 | 47 | 0 | 0.0 | 0.0 | 0.00 | 0.00 | 0.00 | 89 | 1015.7 |
| 20260505114035 | 47 | 0 | 0.0 | 0.0 | 0.00 | 0.00 | 0.00 | 89 | 1015.8 |
| 20260505113533 | 47 | 0 | 0.0 | 0.0 | 0.00 | 0.00 | 0.00 | 89 | 1015.6 |
| 20260505113043 | 46 | 0 | 0.0 | 0.0 | 0.00 | 0.00 | 0.00 | 88 | 1015.6 |
| 20260505112533 | 46 | 0 | 0.0 | 0.0 | 0.00 | 0.00 | 0.00 | 88 | 1015.6 |
| 20260505112033 | 46 | 0 | 0.0 | 0.0 | 0.00 | 0.00 | 0.00 | 88 | 1015.6 |
| 20260505111547 | 46 | 0 | 0.0 | 0.0 | 0.00 | 0.00 | 0.00 | 88 | 1015.6 |
| 20260505111032 | 46 | 0 | 0.0 | 0.0 | 0.00 | 0.00 | 0.00 | 88 | 1015.4 |
| 20260505110533 | 46 | 0 | 0.0 | 0.0 | 0.00 | 0.00 | 0.00 | 88 | 1015.4 |
| 20260505102033 | 47 | 0 | 0.0 | 0.0 | 0.00 | 0.00 | 0.00 | 87 | 1015.6 |
| 20260505101549 | 47 | 0 | 0.0 | 0.0 | 0.00 | 0.00 | 0.00 | 87 | 1015.5 |
| 20260505101034 | 47 | 0 | 0.0 | 0.0 | 0.00 | 0.00 | 0.00 | 87 | 1015.4 |
| 20260505100533 | 47 | 0 | 0.0 | 0.0 | 0.00 | 0.00 | 0.00 | 87 | 1015.4 |
| 20260505100044 | 47 | 0 | 0.0 | 0.0 | 0.00 | 0.00 | 0.00 | 87 | 1015.4 |
| 20260505095533 | 47 | 0 | 0.0 | 0.0 | 0.00 | 0.00 | 0.00 | 87 | 1015.5 |
| 20260505095036 | 47 | 0 | 0.0 | 0.0 | 0.00 | 0.00 | 0.00 | 87 | 1015.6 |
| 20260505094545 | 47 | 0 | 0.0 | 0.0 | 0.00 | 0.00 | 0.00 | 87 | 1015.5 |
| 20260505094033 | 47 | 0 | 0.0 | 0.0 | 0.00 | 0.00 | 0.00 | 87 | 1015.5 |
| 20260505093533 | 47 | 0 | 0.0 | 0.0 | 0.00 | 0.00 | 0.00 | 87 | 1015.5 |
| 20260505093055 | 47 | 0 | 0.0 | 0.0 | 0.00 | 0.00 | 0.00 | 87 | 1015.6 |
| 20260505092533 | 47 | 0 | 0.0 | 0.0 | 0.00 | 0.00 | 0.00 | 87 | 1015.5 |
| 20260505092035 | 47 | 0 | 0.0 | 0.0 | 0.00 | 0.00 | 0.00 | 86 | 1015.6 |
| 20260505091600 | 47 | 0 | 0.0 | 0.0 | 0.00 | 0.00 | 0.00 | 86 | 1015.6 |
| 20260505091034 | 47 | 0 | 0.0 | 0.0 | 0.00 | 0.00 | 0.00 | 86 | 1015.7 |
| 20260505090533 | 47 | 0 | 0.0 | 0.0 | 0.00 | 0.00 | 0.00 | 87 | 1015.8 |
| 20260505090045 | 47 | 0 | 0.0 | 0.0 | 0.00 | 0.00 | 0.00 | 87 | 1015.7 |
| 20260505085533 | 47 | 0 | 0.0 | 0.0 | 0.00 | 0.00 | 0.00 | 86 | 1015.7 |
| 20260505085036 | 47 | 0 | 0.0 | 0.0 | 0.00 | 0.00 | 0.00 | 86 | 1015.7 |
| 20260505084544 | 47 | 0 | 0.0 | 0.0 | 0.00 | 0.00 | 0.00 | 86 | 1015.6 |
| 20260505084033 | 48 | 0 | 0.0 | 0.0 | 0.00 | 0.00 | 0.00 | 86 | 1015.6 |
| 20260505083533 | 48 | 0 | 0.0 | 0.0 | 0.00 | 0.00 | 0.00 | 86 | 1015.7 |
| 20260505083044 | 48 | 0 | 0.0 | 0.0 | 0.00 | 0.00 | 0.00 | 86 | 1015.7 |
| 20260505082533 | 48 | 0 | 0.0 | 0.0 | 0.00 | 0.00 | 0.00 | 86 | 1015.7 |
| 20260505082033 | 48 | 0 | 0.0 | 0.0 | 0.00 | 0.00 | 0.00 | 85 | 1015.7 |
| 20260505081546 | 48 | 0 | 0.0 | 0.0 | 0.00 | 0.00 | 0.00 | 85 | 1015.8 |
| 20260505081035 | 48 | 0 | 0.0 | 0.0 | 0.00 | 0.00 | 0.00 | 85 | 1015.9 |
| 20260505080532 | 48 | 0 | 0.0 | 0.0 | 0.00 | 0.00 | 0.00 | 85 | 1015.7 |
| 20260505080046 | 48 | 0 | 0.0 | 0.0 | 0.00 | 0.00 | 0.00 | 85 | 1015.8 |
| 20260505075532 | 48 | 0 | 0.0 | 0.0 | 0.00 | 0.00 | 0.00 | 85 | 1015.8 |
| 20260505075034 | 48 | 0 | 0.0 | 0.0 | 0.00 | 0.00 | 0.00 | 85 | 1015.9 |
| 20260505074544 | 48 | 0 | 0.0 | 0.0 | 0.00 | 0.00 | 0.00 | 85 | 1015.8 |
| 20260505074033 | 48 | 0 | 0.0 | 0.0 | 0.00 | 0.00 | 0.00 | 85 | 1015.8 |
| 20260505073533 | 48 | 0 | 0.0 | 0.0 | 0.00 | 0.00 | 0.00 | 85 | 1015.8 |
| 20260505073052 | 49 | 0 | 0.0 | 0.0 | 0.00 | 0.00 | 0.00 | 85 | 1015.7 |
| 20260505072534 | 49 | 0 | 0.0 | 0.0 | 0.00 | 0.00 | 0.00 | 85 | 1015.9 |
| 20260505072034 | 49 | 0 | 0.0 | 0.0 | 0.00 | 0.00 | 0.00 | 84 | 1015.8 |
| 20260505071557 | 49 | 0 | 0.0 | 0.0 | 0.00 | 0.00 | 0.00 | 84 | 1015.7 |
| 20260505071034 | 49 | 0 | 0.0 | 0.0 | 0.00 | 0.00 | 0.00 | 84 | 1015.8 |
| 20260505070535 | 49 | 0 | 0.0 | 0.0 | 0.00 | 0.00 | 0.00 | 84 | 1015.8 |
| 20260505070056 | 49 | 0 | 0.0 | 0.0 | 0.00 | 0.00 | 0.00 | 84 | 1015.7 |
| 20260505065533 | 49 | 0 | 0.0 | 0.0 | 0.00 | 0.00 | 0.00 | 84 | 1015.8 |
| 20260505065032 | 49 | 0 | 0.0 | 0.0 | 0.00 | 0.00 | 0.00 | 83 | 1015.7 |
| 20260505064549 | 49 | 0 | 0.0 | 0.0 | 0.00 | 0.00 | 0.00 | 83 | 1015.7 |
| 20260505064035 | 49 | 0 | 0.0 | 0.0 | 0.00 | 0.00 | 0.00 | 83 | 1015.8 |
| 20260505063532 | 50 | 0 | 0.0 | 0.0 | 0.00 | 0.00 | 0.00 | 83 | 1015.7 |
| 20260505063044 | 50 | 0 | 0.0 | 0.0 | 0.00 | 0.00 | 0.00 | 83 | 1015.6 |
| 20260505062533 | 50 | 0 | 0.0 | 0.0 | 0.00 | 0.00 | 0.00 | 83 | 1015.7 |
| 20260505062032 | 50 | 0 | 0.0 | 0.0 | 0.00 | 0.00 | 0.00 | 83 | 1015.8 |
| 20260505061554 | 50 | 0 | 0.0 | 0.0 | 0.00 | 0.00 | 0.00 | 82 | 1015.8 |
| 20260505061033 | 50 | 0 | 0.0 | 0.0 | 0.00 | 0.00 | 0.00 | 82 | 1015.8 |
| 20260505060535 | 51 | 0 | 0.0 | 0.0 | 0.00 | 0.00 | 0.00 | 82 | 1015.7 |
| 20260505060052 | 51 | 0 | 0.0 | 0.0 | 0.00 | 0.00 | 0.00 | 82 | 1015.8 |
| 20260505055535 | 51 | 0 | 0.0 | 0.0 | 0.00 | 0.00 | 0.00 | 82 | 1015.8 |
| 20260505055033 | 51 | 0 | 0.0 | 0.0 | 0.00 | 0.00 | 0.00 | 82 | 1015.9 |
| 20260505054547 | 51 | 0 | 0.0 | 0.0 | 0.00 | 0.00 | 0.00 | 82 | 1015.9 |
| 20260505054033 | 51 | 0 | 0.0 | 0.0 | 0.00 | 0.00 | 0.00 | 81 | 1015.9 |
| 20260505053532 | 51 | 0 | 0.0 | 0.0 | 0.00 | 0.00 | 0.00 | 81 | 1016.1 |
| 20260505053047 | 51 | 0 | 0.0 | 0.0 | 0.00 | 0.00 | 0.00 | 81 | 1016.0 |
| 20260505052532 | 51 | 0 | 0.0 | 0.0 | 0.00 | 0.00 | 0.00 | 81 | 1016.0 |
| 20260505052034 | 52 | 0 | 0.0 | 0.0 | 0.00 | 0.00 | 0.00 | 81 | 1015.9 |
| 20260505051557 | 52 | 0 | 0.0 | 0.0 | 0.00 | 0.00 | 0.00 | 80 | 1015.9 |
| 20260505051033 | 52 | 0 | 0.0 | 0.0 | 0.00 | 0.00 | 0.00 | 80 | 1015.9 |
| 20260505050533 | 52 | 0 | 0.0 | 0.0 | 0.00 | 0.00 | 0.00 | 80 | 1015.9 |
| 20260505041547 | 53 | 0 | 0.0 | 0.0 | 0.00 | 0.00 | 0.00 | 78 | 1016.1 |
| 20260505041033 | 53 | 0 | 0.0 | 0.0 | 0.00 | 0.00 | 0.00 | 78 | 1016.0 |
| 20260505040533 | 53 | 0 | 0.0 | 0.0 | 0.00 | 0.00 | 0.00 | 78 | 1016.0 |
| 20260505040047 | 53 | 0 | 0.0 | 0.0 | 0.00 | 0.00 | 0.00 | 78 | 1015.9 |
| 20260505035534 | 54 | 0 | 0.0 | 0.0 | 0.00 | 0.00 | 0.00 | 78 | 1016.0 |
| 20260505035032 | 54 | 0 | 0.0 | 0.0 | 0.00 | 0.00 | 0.00 | 78 | 1016.0 |
| 20260505034546 | 54 | 0 | 0.0 | 0.0 | 0.00 | 0.00 | 0.00 | 78 | 1016.0 |
| 20260505034033 | 54 | 0 | 0.0 | 0.0 | 0.00 | 0.00 | 0.00 | 77 | 1016.1 |
| 20260505033533 | 54 | 0 | 0.0 | 0.0 | 0.00 | 0.00 | 0.00 | 77 | 1015.9 |
| 20260505033045 | 54 | 0 | 0.0 | 0.0 | 0.00 | 0.00 | 0.00 | 76 | 1016.1 |
| 20260505032533 | 55 | 0 | 0.0 | 0.0 | 0.00 | 0.00 | 0.00 | 77 | 1016.1 |
| 20260505032036 | 55 | 0 | 0.0 | 0.0 | 0.00 | 0.00 | 0.00 | 77 | 1016.1 |
| 20260505031552 | 55 | 0 | 0.0 | 0.0 | 0.00 | 0.00 | 0.00 | 76 | 1016.0 |
| 20260505031033 | 55 | 0 | 0.0 | 1.7 | 0.00 | 0.00 | 0.00 | 76 | 1016.2 |
| 20260505030533 | 55 | 0 | 0.0 | 1.7 | 0.00 | 0.00 | 0.00 | 75 | 1016.2 |
| 20260505030044 | 56 | 0 | 0.0 | 1.7 | 0.00 | 0.00 | 0.00 | 75 | 1016.2 |
| 20260505025532 | 56 | 338 | 0.0 | 0.9 | 0.00 | 0.00 | 0.00 | 74 | 1016.2 |
| 20260505025033 | 56 | 0 | 0.0 | 0.0 | 0.00 | 0.00 | 0.00 | 74 | 1016.2 |
| 20260505024549 | 56 | 0 | 0.0 | 0.0 | 0.00 | 0.00 | 0.00 | 74 | 1016.2 |
| 20260505024035 | 56 | 0 | 0.0 | 0.0 | 0.00 | 0.00 | 0.00 | 74 | 1016.1 |
| 20260505023536 | 57 | 0 | 0.0 | 0.0 | 0.00 | 0.00 | 0.00 | 73 | 1016.1 |